This is the latest recevied weather packets stored in our database for station/object KB3UQE. If no packets are shown the sender has not sent any weather packets the latest 10 day(s).
| Time | Temp. | Humidity | Pressure | Rain* | Wind** | Luminosity | Snow |
|---|---|---|---|---|---|---|---|
| 1787597686 | 26.11° C | 52% | 1011.5 hPa | 0 mm | - | - | - |
| 1787597082 | 26.11° C | 52% | 1011.5 hPa | 0 mm | - | - | - |
| 1787596480 | 26.11° C | 52% | 1011.5 hPa | 0 mm | - | - | - |
| 1787595877 | 26.11° C | 54% | 1011.2 hPa | 0 mm | - | - | - |
| 1787595274 | 26.11° C | 56% | 1011.5 hPa | 0 mm | - | - | - |
| 1787594672 | 25.56° C | 55% | 1011.5 hPa | 0 mm | - | - | - |
| 1787594068 | 25.56° C | 56% | 1011.5 hPa | 0 mm | - | - | - |
| 1787593466 | 25.56° C | 55% | 1011.5 hPa | 0 mm | - | - | - |
| 1787592863 | 26.11° C | 54% | 1011.5 hPa | 0 mm | - | - | - |
| 1787592261 | 25.56° C | 56% | 1011.2 hPa | 0 mm | - | - | - |
| 1787591658 | 25.56° C | 58% | 1011.9 hPa | 0 mm | - | - | - |
| 1787591056 | 25.56° C | 57% | 1011.5 hPa | 0 mm | - | - | - |
| 1787590453 | 25.56° C | 61% | 1011.5 hPa | 0 mm | - | - | - |
| 1787589851 | 25.56° C | 64% | 1011.9 hPa | 0 mm | - | - | - |
| 1787589248 | 25° C | 65% | 1011.9 hPa | 0 mm | - | - | - |
| 1787588645 | 25° C | 64% | 1011.9 hPa | 0 mm | - | - | - |
| 1787588042 | 25.56° C | 62% | 1011.9 hPa | 0 mm | - | - | - |
| 1787587440 | 26.11° C | 62% | 1011.9 hPa | 0 mm | - | - | - |
| 1787586838 | 25.56° C | 63% | 1011.9 hPa | 0 mm | - | - | - |
| 1787586235 | 25° C | 64% | 1011.9 hPa | 0 mm | - | - | - |
| 1787585633 | 25° C | 66% | 1011.9 hPa | 0 mm | - | - | - |
| 1787585030 | 24.44° C | 65% | 1012.2 hPa | 0 mm | - | - | - |
| 1787584427 | 23.89° C | 66% | 1012.2 hPa | 0 mm | - | - | - |
| 1787583824 | 23.89° C | 67% | 1011.9 hPa | 0 mm | - | - | - |
| 1787583221 | 22.78° C | 68% | 1011.9 hPa | 0 mm | - | - | - |
* Rain since midnight (hover to see other rain measurements)
** Current wind speed in m/s (hover to see current wind gust speed)